Wind_Speed
8 11 12 13 15 15 15 16 16 17 16 17 16 16 16 16 16 17 18 18 19 20 20 22 22 23 23 24 25 26 27 27 28 29 29 29 29 30 30 30 30 31 31
6 8 10 12 14 16 15 15 16 16 16 16 16 16 16 17 17 18 18 19 20 21 23 24 25 26 26 27 28 29 30 31 32 32 33 33 33 34 34 34 34 35 35
4 5 6 9 12 14 15 15 16 17 17 17 16 17 17 18 18 19 20 21 21 23 24 25 26 27 28 29 31 32 33 33 34 35 35 37 37 37 37 38 38 39 39
3 5 7 8 10 13 14 15 15 16 17 17 18 18 19 20 20 21 22 22 23 24 25 27 28 28 30 31 32 33 35 36 37 37 38 39 40 40 40 40 41 41 42
5 6 7 9 11 12 13 15 16 16 17 19 19 19 20 21 22 23 23 24 25 26 27 28 29 31 32 34 35 36 37 38 39 40 41 41 42 42 43 43 43 44 44
7 8 8 9 11 12 14 15 15 17 19 20 21 21 21 21 22 23 24 25 26 27 28 30 31 31 33 35 37 38 39 40 41 42 43 44 44 45 46 47 47 47 47
10 10 10 11 12 14 15 16 17 18 19 20 21 21 22 23 23 25 26 28 28 29 30 31 32 34 35 36 38 39 41 42 43 44 45 46 47 48 49 49 50 51 50
12 13 13 13 14 15 16 17 18 19 20 20 21 22 23 24 26 27 28 29 31 32 33 34 35 37 39 40 41 42 43 45 46 47 49 50 51 52 53 53 54 55 54
15 15 15 16 16 17 18 19 20 21 22 23 24 24 25 26 27 29 31 32 34 35 36 38 39 41 42 43 44 46 47 48 49 51 52 53 54 55 56 57 57 57 57
18 18 18 19 19 20 20 21 22 23 24 25 26 27 27 28 29 31 33 35 36 38 39 41 42 43 45 46 47 49 50 51 52 53 55 56 57 58 59 59 59 59 59
20 20 21 21 21 22 22 23 23 24 25 26 27 28 29 31 32 34 36 37 39 40 42 43 45 46 48 49 50 52 53 54 55 56 56 57 58 59 59 59 60 60 60
23 24 24 24 25 25 25 26 26 27 28 29 30 31 32 33 35 36 37 39 41 43 45 46 48 50 51 52 53 54 55 56 56 56 57 57 58 58 59 60 60 60 60
27 27 27 28 28 28 28 29 30 31 31 32 32 34 34 35 37 38 40 41 43 46 47 49 51 52 53 54 55 56 56 56 57 57 58 58 58 59 59 59 60 60 59
30 30 30 30 30 30 31 31 32 34 35 35 35 36 37 38 40 41 42 44 45 47 49 51 52 53 54 56 57 57 57 57 58 58 58 58 58 58 58 58 58 58 58
32 32 32 31 31 31 32 33 34 35 35 35 37 38 39 40 41 43 45 46 47 49 51 52 53 54 55 56 57 57 57 57 56 56 56 56 55 55 56 55 55 55 55
34 33 32 32 32 32 33 34 34 34 35 36 38 39 40 41 43 45 47 49 50 50 52 53 54 55 55 56 55 55 55 54 53 53 52 52 51 51 50 50 50 50 49
33 32 31 31 31 31 32 32 33 34 35 37 38 40 42 44 45 46 48 49 50 51 52 53 53 53 53 53 53 52 51 50 49 49 48 47 46 46 45 45 44 43 42
31 31 31 31 31 30 30 31 32 33 35 37 39 41 43 44 45 47 48 49 50 51 51 52 52 51 51 50 49 48 47 47 47 46 45 44 43 42 42 41 40 38 37
30 30 29 28 28 28 30 32 34 35 37 38 40 42 44 45 46 47 47 49 50 50 50 50 49 48 47 46 46 45 45 44 44 43 41 40 40 39 38 36 34 33 32
25 25 25 25 27 29 31 33 35 37 38 40 41 43 44 45 46 46 47 48 48 47 46 46 45 45 44 44 43 43 42 41 40 39 38 37 36 35 33 31 30 29 28
23 24 26 28 29 31 33 34 36 38 39 41 42 44 45 46 47 47 47 46 45 44 44 43 43 42 42 41 41 40 39 39 38 37 36 34 32 31 29 28 28 27 26
23 24 26 28 30 32 34 35 37 39 41 42 43 44 45 46 45 45 44 43 43 42 42 41 40 40 40 39 39 38 37 36 35 34 33 32 30 29 28 27 27 27 26
25 26 28 30 32 34 36 37 39 40 41 43 43 43 43 42 42 42 41 41 40 39 39 39 38 38 38 37 36 35 34 33 32 31 30 30 28 28 27 26 26 26 25
27 29 31 32 34 35 37 38 39 40 41 41 41 41 40 40 39 39 39 38 37 37 37 37 37 37 36 35 35 33 32 31 30 30 29 28 28 27 26 26 26 26 25
29 31 33 34 35 37 37 38 38 39 39 38 38 38 38 37 37 37 36 36 35 35 35 35 35 35 35 34 33 33 32 31 30 29 28 28 27 26 25 25 25 24 24
32 33 34 35 35 36 36 36 36 36 36 36 36 35 35 35 35 35 34 34 33 34 34 34 34 34 33 33 32 31 30 30 29 28 28 27 26 26 25 25 24 24 24
Wind_Direction
220 215 212 211 212 212 213 216 220 224 226 231 235 242 243 245 248 252 256 260 264 267 270 273 274 276 277 278 280 282 283 284 285 286 286 286 286 286 286 286 286 286 285
225 221 218 219 218 216 216 220 224 227 231 236 243 246 249 251 254 257 260 264 268 271 273 274 276 278 279 279 280 282 282 283 283 284 285 286 286 286 286 285 285 284 283
230 216 216 219 219 220 222 226 229 233 236 239 244 249 251 254 257 260 263 266 270 273 274 275 277 279 280 281 281 282 283 284 284 284 285 285 286 285 285 284 284 284 283
246 229 226 224 223 223 226 229 232 236 240 244 247 251 255 258 262 264 267 270 273 276 277 277 278 281 282 283 284 284 285 285 285 285 285 285 285 285 284 284 283 284 283
261 242 236 231 230 230 234 236 238 241 243 247 249 253 258 263 265 266 270 273 276 278 279 281 282 283 284 285 286 286 287 286 286 286 286 285 285 284 285 285 284 283 282
259 252 248 246 242 240 240 243 247 249 251 252 255 256 261 266 267 269 272 277 279 280 282 284 285 286 286 287 287 287 288 288 287 287 287 286 284 284 284 284 283 283 283
262 258 256 258 255 253 253 253 255 256 257 259 262 262 265 268 271 273 276 279 281 283 284 286 287 288 288 288 288 289 289 288 288 287 287 286 286 285 284 284 283 283 283
266 268 268 267 267 263 261 259 260 264 264 266 269 272 273 274 276 278 279 281 282 284 286 287 288 289 289 289 289 289 289 289 289 288 287 287 286 284 284 283 283 282 282
270 269 270 271 271 269 267 264 264 266 267 271 273 274 276 277 279 282 283 284 285 286 288 289 290 291 290 290 291 291 291 290 289 288 287 286 285 285 284 284 283 282 281
273 274 274 273 274 273 270 267 267 269 271 273 275 276 278 280 282 283 285 287 288 288 288 290 291 292 292 292 292 291 291 290 289 289 288 287 286 285 285 284 284 283 281
275 277 278 277 276 276 274 272 270 271 274 276 277 279 280 282 284 285 287 289 290 290 290 291 292 292 293 293 293 293 292 291 290 289 289 288 287 286 285 285 284 283 282
275 277 279 280 280 278 276 275 274 275 277 279 280 281 283 285 286 287 289 290 291 291 292 293 293 294 295 294 294 294 294 293 292 291 290 289 288 287 286 285 284 283 282
276 278 277 279 280 280 276 275 275 276 278 279 280 282 284 286 287 288 289 289 291 293 294 295 295 295 295 295 295 295 294 293 292 292 291 289 288 287 286 285 284 283 283
274 277 279 279 279 278 278 277 278 278 280 281 283 284 286 288 288 289 289 291 293 295 296 297 296 296 296 296 296 295 293 292 292 291 291 290 289 288 287 286 284 284 282
273 274 275 276 277 276 277 279 282 283 283 283 285 286 287 289 290 292 294 296 296 297 297 298 298 298 297 297 296 295 294 293 293 292 291 291 290 289 288 287 286 284 283
272 273 274 276 277 277 278 281 282 283 285 286 288 289 291 292 294 296 297 298 299 299 299 299 300 300 299 299 298 298 297 296 296 295 294 294 294 293 291 290 288 287 286
270 270 273 275 276 277 279 281 284 286 288 289 292 294 295 297 298 299 299 300 300 300 300 301 300 300 300 300 300 299 299 298 298 297 297 296 295 294 293 293 291 290 288
267 270 273 274 275 277 280 283 286 289 292 294 296 297 297 298 299 300 300 301 301 301 301 301 301 301 301 301 301 301 300 299 299 298 297 296 295 295 294 294 294 292 290
268 272 274 276 279 282 285 288 290 292 294 295 297 297 298 299 300 301 301 301 302 302 302 302 302 302 303 302 302 302 301 301 300 300 299 297 297 297 296 296 295 294 292
273 277 280 285 288 290 291 292 293 295 296 298 299 299 300 301 302 302 302 302 303 303 303 303 303 303 303 303 302 303 302 302 301 301 300 300 299 298 297 296 295 295 294
282 285 287 289 290 292 294 295 296 297 299 300 301 302 303 303 303 303 303 303 302 303 303 303 303 303 304 304 304 304 303 302 301 301 301 301 300 299 297 296 296 296 296
287 289 291 292 294 296 298 299 300 301 302 302 303 303 303 303 304 304 303 303 303 303 304 303 303 304 305 306 306 306 305 304 303 303 303 302 300 299 299 298 296 296 296
291 293 296 298 299 301 302 303 303 303 303 303 304 304 304 304 304 304 304 304 304 304 305 305 306 306 307 307 307 307 307 306 305 305 304 303 302 300 299 298 298 297 297
297 299 301 302 303 304 304 304 304 304 304 305 305 305 305 305 304 305 305 305 305 306 306 306 307 307 308 308 308 308 307 307 306 306 305 303 302 300 299 298 297 296 296
302 303 304 304 305 305 305 305 305 306 306 306 306 306 306 306 306 307 307 307 308 308 308 308 308 309 309 308 308 308 307 307 306 306 305 304 302 301 300 299 298 297 296
305 305 306 306 306 306 307 307 307 308 308 308 308 308 308 308 308 309 308 309 310 310 311 311 311 310 310 309 309 308 308 307 306 305 305 304 302 300 299 298 298 298 298
Height
5822 5823 5825 5828 5831 5833 5837 5840 5842 5845 5847 5849 5851 5853 5855 5857 5858 5859 5860 5861 5862 5862 5863 5863 5863 5863 5862 5862 5862 5861 5861 5860 5859 5859 5858 5857 5856 5855 5855 5854 5853 5852 5851
5821 5823 5824 5827 5829 5832 5835 5837 5840 5842 5844 5846 5848 5850 5852 5853 5854 5855 5856 5857 5857 5857 5857 5857 5857 5857 5857 5856 5856 5855 5854 5853 5853 5852 5850 5849 5849 5847 5846 5845 5844 5843 5843
5822 5823 5824 5825 5828 5830 5832 5835 5837 5839 5841 5843 5845 5847 5848 5849 5850 5850 5851 5851 5852 5852 5852 5851 5851 5851 5850 5849 5849 5848 5847 5846 5845 5844 5842 5841 5840 5838 5837 5836 5835 5833 5832
5822 5822 5823 5825 5826 5828 5830 5832 5834 5836 5838 5839 5841 5842 5843 5844 5845 5845 5846 5846 5846 5846 5845 5845 5844 5844 5843 5842 5841 5839 5838 5837 5836 5834 5833 5831 5830 5828 5827 5826 5824 5823 5821
5821 5822 5823 5823 5825 5826 5828 5829 5831 5833 5834 5835 5837 5838 5839 5839 5839 5839 5840 5840 5840 5839 5838 5838 5837 5836 5835 5833 5832 5831 5829 5828 5826 5824 5822 5821 5819 5817 5815 5814 5812 5811 5809
5820 5821 5822 5822 5822 5824 5825 5826 5828 5829 5830 5831 5832 5832 5833 5834 5834 5834 5834 5834 5833 5832 5831 5830 5829 5828 5826 5824 5823 5821 5819 5817 5815 5813 5811 5809 5807 5805 5803 5801 5799 5798 5797
5819 5819 5819 5820 5820 5821 5822 5823 5824 5825 5826 5826 5827 5827 5828 5828 5828 5827 5827 5826 5826 5825 5823 5822 5821 5819 5817 5815 5813 5811 5808 5806 5804 5802 5799 5797 5794 5792 5790 5787 5785 5783 5781
5816 5816 5817 5817 5817 5818 5818 5819 5820 5820 5821 5822 5822 5822 5822 5822 5821 5821 5820 5819 5818 5816 5815 5814 5812 5809 5807 5805 5802 5800 5797 5794 5792 5789 5786 5783 5780 5777 5774 5772 5770 5767 5766
5812 5813 5813 5813 5814 5813 5814 5814 5814 5815 5816 5816 5816 5815 5815 5815 5814 5813 5812 5811 5809 5807 5806 5804 5801 5799 5796 5794 5791 5788 5785 5781 5778 5775 5772 5768 5765 5761 5758 5755 5752 5750 5749
5808 5808 5808 5809 5809 5808 5808 5808 5808 5809 5809 5809 5809 5808 5808 5807 5806 5805 5803 5802 5800 5798 5796 5794 5791 5788 5785 5781 5778 5775 5771 5767 5763 5760 5756 5752 5748 5744 5740 5737 5734 5731 5729
5804 5804 5804 5804 5804 5803 5803 5803 5803 5803 5803 5802 5802 5801 5800 5799 5798 5796 5794 5792 5790 5787 5785 5782 5779 5775 5772 5768 5764 5760 5756 5752 5747 5743 5739 5735 5731 5727 5723 5719 5715 5712 5710
5798 5798 5798 5798 5798 5798 5797 5797 5796 5796 5795 5795 5794 5793 5792 5791 5788 5786 5784 5781 5779 5776 5773 5769 5766 5762 5758 5754 5749 5745 5740 5735 5731 5726 5722 5717 5713 5708 5704 5700 5697 5693 5690
5792 5792 5791 5791 5791 5791 5790 5790 5789 5789 5788 5787 5786 5785 5783 5781 5779 5776 5774 5771 5768 5764 5760 5756 5752 5748 5743 5738 5733 5728 5723 5718 5713 5708 5703 5699 5694 5689 5685 5681 5677 5674 5671
5785 5785 5784 5784 5784 5784 5783 5782 5781 5780 5779 5778 5776 5775 5773 5771 5768 5765 5762 5759 5755 5751 5747 5742 5738 5733 5728 5722 5717 5712 5706 5701 5696 5691 5686 5681 5676 5671 5666 5662 5659 5655 5652
5777 5777 5777 5777 5776 5776 5775 5774 5773 5771 5770 5768 5766 5764 5762 5760 5756 5753 5749 5746 5742 5737 5732 5728 5723 5718 5712 5706 5700 5695 5689 5683 5678 5673 5667 5662 5657 5653 5648 5643 5639 5636 5633
5770 5770 5770 5769 5769 5768 5767 5765 5763 5762 5760 5758 5756 5754 5751 5748 5744 5741 5737 5733 5728 5723 5717 5712 5707 5701 5695 5689 5683 5677 5672 5666 5661 5656 5650 5645 5641 5636 5631 5626 5622 5619 5616
5762 5761 5761 5761 5760 5759 5757 5756 5755 5753 5751 5749 5746 5743 5740 5736 5732 5728 5723 5718 5713 5708 5703 5697 5691 5686 5680 5674 5668 5662 5656 5650 5645 5640 5635 5630 5626 5621 5617 5613 5608 5605 5602
5753 5753 5752 5752 5751 5750 5749 5748 5746 5744 5742 5739 5736 5732 5728 5724 5720 5715 5710 5704 5699 5694 5689 5683 5677 5671 5665 5659 5653 5647 5642 5636 5631 5626 5621 5617 5612 5608 5604 5600 5596 5593 5590
5745 5744 5744 5743 5742 5741 5740 5739 5737 5735 5732 5729 5725 5721 5716 5712 5707 5702 5697 5691 5685 5680 5674 5668 5662 5657 5651 5645 5640 5634 5629 5624 5618 5613 5608 5604 5600 5596 5592 5589 5586 5583 5580
5738 5737 5737 5736 5735 5734 5732 5729 5727 5724 5721 5717 5713 5709 5704 5699 5694 5689 5684 5678 5672 5666 5660 5655 5649 5644 5638 5633 5627 5622 5617 5612 5607 5602 5597 5593 5589 5585 5582 5579 5576 5574 5571
5731 5731 5730 5729 5727 5725 5722 5719 5716 5713 5709 5705 5701 5696 5691 5686 5681 5675 5670 5664 5659 5654 5648 5643 5637 5632 5626 5621 5616 5610 5605 5600 5596 5591 5587 5583 5579 5576 5573 5571 5568 5566 5564
5725 5724 5722 5721 5718 5715 5712 5709 5705 5701 5697 5693 5688 5684 5678 5673 5667 5662 5657 5652 5647 5641 5636 5631 5626 5621 5615 5610 5605 5600 5595 5590 5586 5582 5578 5574 5571 5568 5565 5563 5560 5558 5556
5718 5716 5714 5711 5708 5705 5702 5698 5694 5690 5685 5681 5676 5671 5666 5661 5655 5650 5645 5640 5635 5630 5625 5620 5615 5610 5605 5600 5595 5590 5586 5581 5577 5573 5569 5566 5563 5560 5557 5555 5553 5550 5548
5710 5707 5705 5702 5698 5695 5691 5687 5683 5678 5674 5669 5664 5659 5654 5649 5644 5639 5634 5629 5624 5620 5615 5610 5605 5600 5595 5591 5586 5581 5577 5573 5569 5565 5562 5559 5555 5553 5550 5547 5545 5543 5541
5700 5698 5695 5692 5688 5684 5680 5676 5672 5667 5662 5658 5653 5648 5643 5638 5634 5629 5624 5619 5615 5610 5605 5600 5596 5591 5586 5582 5577 5573 5569 5565 5561 5558 5554 5551 5548 5545 5543 5540 5538 5536 5534
5691 5688 5685 5681 5677 5673 5669 5665 5661 5656 5652 5647 5642 5638 5633 5628 5624 5619 5615 5610 5605 5601 5596 5592 5587 5582 5578 5573 5569 5565 5561 5557 5554 5550 5547 5544 5541 5538 5536 5533 5531 5529 5527